Location: *
(37.5724°S, 58.0067°E)
Time: 19:40:53
(UTC+00:00)

Cosmos 2369 Rocket - Pass Details

Date: 26 September 2020
Orbit: 827 x 854 km, 71.0° (Epoch: 27 October)

Event Time Altitude Azimuth Distance (km) Brightness Sun altitude
Rises 15:13:01 0° 195° (SSW) 3,408 5.7 -13.5°
Reaches altitude 10° 15:15:40 10° 187° (S) 2,465 4.9 -14.1°
Maximum altitude 15:20:54 38° 119° (ESE) 1,255 2.7 -15.1°
Enters shadow 15:23:40 24° 67° (ENE) 1,677 3.1 -15.6°
